Location: Hopkins Observatory
(42.6965°N, 73.1843°W)
Time: 21:51:57
(UTC-04:00)

Amateur Radio Satellites - All Passes

Search period start: 31 August 2015 21:21
Search period end: 01 September 2015 21:21
Location: Hopkins Observatory, 42.6965°N, 73.1843°W

Satellite Date Start Highest point End Downlink Frequencies (MHz)
Time Altitude Azimuth
AAUSAT CUBESAT 2 31 Aug 21:26:57 21:31:02 50° 261° (W) 21:35:08 437.432
STRAND 1 31 Aug 21:27:44 21:31:25 20° 297° (WNW) 21:34:58 437.568
CUBEBUG 2 31 Aug 21:40:05 21:44:43 78° 258° (WSW) 21:49:30 437.445
ZACube-1 31 Aug 21:41:01 21:45:31 65° 74° (ENE) 21:50:05 437.345
VELOX 1 31 Aug 21:43:31 21:44:40 11° 61° (ENE) 21:46:04 145.980
FUNcube-1 31 Aug 21:46:27 21:50:58 72° 75° (ENE) 21:55:34 145.935
UWE-3 31 Aug 21:47:25 21:52:02 83° 259° (W) 21:56:44 435.000/436.395/437.385
CINEMA 3 31 Aug 21:49:19 21:53:30 30° 266° (W) 21:57:47 145.822/145.860
DELFI C3 31 Aug 21:52:04 21:56:07 87° 78° (ENE) 22:00:12 145.870
CUTE 1.7 + AOD 2 31 Aug 21:56:25 21:58:50 14° 271° (W) 22:01:05 437.475
ANTELSAT 31 Aug 22:10:51 22:12:07 11° 86° (E) 22:13:39 437.575/2403.000
Cosmos 2504 31 Aug 22:14:02 22:19:40 22° 80° (E) 22:25:50 435.465 / 435.565
DX 1 31 Aug 22:26:37 22:30:46 47° 72° (ENE) 22:34:58 434.975-435.025
HUMSAT D 31 Aug 22:27:20 22:31:40 82° 77° (ENE) 22:36:01 437.325/437.525
HO-68 31 Aug 22:28:16 22:32:23 15° 274° (W) 22:36:04 435.675
50 SAT 31 Aug 22:32:05 22:35:44 37° 72° (ENE) 22:39:26 437.505
ESTCUBE 1 31 Aug 22:35:01 22:38:48 28° 69° (ENE) 22:42:40 437.505/2401.250
Oscar 11 31 Aug 22:35:49 22:39:14 22° 267° (W) 22:42:34 145.826/435.025
UKube-1 31 Aug 22:39:18 22:43:32 59° 74° (ENE) 22:47:49 .
M-CUBED/EXP-1 PRIME 31 Aug 22:42:46 22:44:35 13° 93° (E) 22:46:32 437.505
AISAT 31 Aug 22:48:07 22:52:23 52° 73° (ENE) 22:56:43 437.250
CUBEBUG 1 31 Aug 22:49:32 22:53:20 31° 70° (ENE) 22:57:12 437.445
QB50P2 31 Aug 22:55:18 22:56:48 12° 88° (E) 22:58:32 145.880/145.840
NANOSAT C BR1 31 Aug 22:56:31 22:57:52 11° 88° (E) 22:59:28 145.865
RS-15 31 Aug 22:59:15 23:09:13 32° 26° (NNE) 23:19:43 29.354- 29.394
UNISAT 6 31 Aug 22:59:27 23:03:42 37° 96° (E) 23:07:53 437.425
QB50P1 31 Aug 23:09:01 23:11:43 17° 91° (E) 23:14:34 145.935-145.965
CUSAT 1 31 Aug 23:12:33 23:14:24 13° 80° (E) 23:16:44 437.405
VELOX 1 31 Aug 23:16:14 23:20:38 81° 257° (WSW) 23:25:04 145.980
BEESAT 3 31 Aug 23:18:41 23:22:21 32° 48° (NE) 23:25:59 437.485
ZACube-1 31 Aug 23:20:10 23:22:23 13° 273° (W) 23:24:24 437.345
YUBILEINY 31 Aug 23:21:04 23:28:16 26° 297° (WNW) 23:35:15 435.215
FUNcube-1 31 Aug 23:26:11 23:27:54 12° 274° (W) 23:29:21 145.935
TIGRISAT 31 Aug 23:27:51 23:32:28 73° 102° (ESE) 23:36:55 435.000
BEESAT 2 31 Aug 23:30:38 23:34:19 32° 48° (NE) 23:37:59 435.950
DANDE 31 Aug 23:40:09 23:41:47 13° 81° (E) 23:43:47 436.750
ANTELSAT 31 Aug 23:44:57 23:49:33 72° 285° (WNW) 23:53:59 437.575/2403.000
TISAT 1 31 Aug 23:50:03 23:53:28 25° 68° (ENE) 23:56:59 437.305
Cosmos 2504 01 Sep 00:02:47 00:10:56 80° 279° (W) 00:19:34 435.465 / 435.565
DX 1 01 Sep 00:04:33 00:07:19 16° 269° (W) 00:09:56 434.975-435.025
AIST 2 01 Sep 00:06:46 00:09:49 19° 41° (NE) 00:12:55 435.215
50 SAT 01 Sep 00:07:45 00:10:26 17° 269° (W) 00:13:00 437.505
POLYITAN 1 01 Sep 00:09:15 00:13:36 78° 101° (E) 00:17:54 437.675
AUBIESAT-1 01 Sep 00:10:33 00:14:30 65° 291° (WNW) 00:18:07 437.475
ESTCUBE 1 01 Sep 00:11:42 00:15:38 29° 265° (W) 00:19:31 437.505/2401.250
POPSAT HIP 1 01 Sep 00:11:53 00:16:13 81° 102° (ESE) 00:20:30 437.405
DUCHIFAT 1 01 Sep 00:12:23 00:16:42 79° 102° (ESE) 00:20:58 145.980
M-CUBED/EXP-1 PRIME 01 Sep 00:15:55 00:19:50 46° 293° (WNW) 00:23:23 437.505
UKube-1 01 Sep 00:18:02 00:20:07 13° 271° (W) 00:21:59 .
BUGSAT 1 01 Sep 00:20:12 00:24:25 60° 100° (E) 00:28:38 437.445
SPROUT 01 Sep 00:20:40 00:24:57 87° 251° (WSW) 00:29:18 437.525
CUBEBUG 1 01 Sep 00:26:11 00:29:44 24° 266° (W) 00:33:14 437.445
AISAT 01 Sep 00:26:42 00:29:20 15° 270° (W) 00:31:48 437.250
QB50P2 01 Sep 00:28:54 00:33:11 63° 286° (WNW) 00:37:26 145.880/145.840
NANOSAT C BR1 01 Sep 00:29:56 00:34:13 65° 286° (WNW) 00:38:26 145.865
UNISAT 6 01 Sep 00:36:39 00:40:17 23° 294° (WNW) 00:43:45 437.425
SO-50 01 Sep 00:37:21 00:41:15 26° 113° (ESE) 00:45:20 436.795
BEESAT 01 Sep 00:38:38 00:41:38 17° 63° (ENE) 00:44:47 436.000
QB50P1 01 Sep 00:43:44 00:47:51 45° 288° (WNW) 00:51:56 145.935-145.965
CUSAT 1 01 Sep 00:52:08 00:55:59 53° 286° (WNW) 01:01:10 437.405
BEESAT 3 01 Sep 00:56:49 01:00:10 25° 246° (WSW) 01:03:24 437.485
Oscar 19 01 Sep 01:02:57 01:05:04 13° 87° (E) 01:07:30 437.125/150
SWISSCUBE 01 Sep 01:03:14 01:07:23 31° 68° (ENE) 01:11:37 437.505
TIGRISAT 01 Sep 01:06:26 01:08:37 13° 298° (WNW) 01:10:35 435.000
BEESAT 2 01 Sep 01:08:52 01:12:14 25° 246° (WSW) 01:15:31 435.950
RS-15 01 Sep 01:12:06 01:23:58 78° 54° (NE) 01:36:15 29.354- 29.394
DANDE 01 Sep 01:20:47 01:24:08 40° 289° (WNW) 01:28:33 436.750
TISAT 1 01 Sep 01:25:27 01:29:09 29° 265° (W) 01:32:49 437.305
PCSat 01 Sep 01:37:49 01:42:46 39° 113° (ESE) 01:47:50 145.827
ITUPSAT 1 01 Sep 01:41:06 01:45:50 66° 73° (ENE) 01:50:34 437.325
AIST 2 01 Sep 01:44:38 01:48:43 53° 241° (WSW) 01:52:43 435.215
POLYITAN 1 01 Sep 01:47:33 01:48:55 11° 298° (WNW) 01:50:06 437.675
KKS-1 01 Sep 01:49:57 01:52:15 14° 63° (ENE) 01:54:45 437.445
POPSAT HIP 1 01 Sep 01:50:23 01:51:29 11° 298° (WNW) 01:52:22 437.405
DUCHIFAT 1 01 Sep 01:50:42 01:51:55 11° 298° (WNW) 01:52:55 145.980
BUGSAT 1 01 Sep 01:57:11 01:59:27 14° 296° (WNW) 02:01:31 437.445
Cosmos 2504 01 Sep 01:59:23 02:04:51 18° 303° (WNW) 02:10:03 435.465 / 435.565
ITAMSAT 1 01 Sep 02:02:32 02:03:50 11° 86° (E) 02:05:30 435.822/435.867
GONETS M04 01 Sep 02:10:22 02:17:51 35° 86° (E) 02:25:32
JAS-2 01 Sep 02:11:18 02:12:02 10° 78° (ENE) 02:13:18 435.910
BEESAT 01 Sep 02:14:22 02:19:04 57° 260° (W) 02:23:47 436.000
SO-50 01 Sep 02:16:59 02:21:35 43° 311° (NW) 02:26:20 436.795
Oscar 19 01 Sep 02:39:56 02:45:10 79° 285° (WNW) 02:50:21 437.125/150
SWISSCUBE 01 Sep 02:41:04 02:45:15 29° 265° (W) 02:49:22 437.505
Cosmos 2499 01 Sep 03:00:20 03:05:35 19° 78° (ENE) 03:11:26 435.465 / 435.565
STARS 01 Sep 03:05:15 03:09:29 49° 72° (ENE) 03:13:48 437.465
VERMONT LUNAR 01 Sep 03:16:18 03:18:01 14° 153° (SSE) 03:19:46 437.305
AO-7 01 Sep 03:20:47 03:25:28 17° 87° (E) 03:30:39 29.400- 29.500
PCSat 01 Sep 03:21:23 03:26:17 33° 311° (NW) 03:31:10 145.827
Gurwin Techsat 1B 01 Sep 03:21:34 03:26:54 80° 102° (ESE) 03:32:14 435.225
ITUPSAT 1 01 Sep 03:21:45 03:24:16 14° 272° (W) 03:26:32 437.325
KKS-1 01 Sep 03:24:00 03:28:25 63° 259° (W) 03:32:53 437.445
RS-15 01 Sep 03:25:32 03:35:37 32° 254° (WSW) 03:45:30 29.354- 29.394
MOZHAYETS 4 01 Sep 03:37:47 03:41:37 27° 68° (ENE) 03:45:31
ITAMSAT 1 01 Sep 03:38:57 03:44:10 88° 291° (WNW) 03:49:22 435.822/435.867
JAS-2 01 Sep 03:51:47 03:58:52 70° 101° (E) 04:05:04 435.910
O/OREOS (USA 219) 01 Sep 04:01:48 04:05:28 23° 55° (NE) 04:09:11 437.305
SO-50 01 Sep 04:02:17 04:03:30 11° 333° (NNW) 04:04:35 436.795
GONETS M04 01 Sep 04:06:00 04:14:26 52° 286° (WNW) 04:22:54
Oscar 19 01 Sep 04:22:00 04:23:45 11° 302° (WNW) 04:25:14 437.125/150
HORYU 2 01 Sep 04:26:07 04:30:13 35° 97° (E) 04:34:20 437.375
STARS 01 Sep 04:43:26 04:46:16 16° 270° (W) 04:48:57 437.465
Cosmos 2499 01 Sep 04:49:07 04:57:36 89° 96° (E) 05:06:33 435.465 / 435.565
VERMONT LUNAR 01 Sep 04:51:10 04:54:01 42° 169° (SSE) 04:56:52 437.305
Gurwin Techsat 1B 01 Sep 05:03:14 05:06:18 15° 300° (WNW) 05:09:08 435.225
AO-7 01 Sep 05:11:17 05:19:39 84° 107° (ESE) 05:27:58 29.400- 29.500
MOZHAYETS 4 01 Sep 05:14:37 05:18:45 32° 264° (W) 05:22:52
ITAMSAT 1 01 Sep 05:20:42 05:22:59 13° 301° (WNW) 05:25:03 435.822/435.867
STRAND 1 01 Sep 05:29:00 05:30:43 12° 59° (ENE) 05:32:43 437.568
CUBESAT XI-V 01 Sep 05:31:41 05:35:51 36° 70° (ENE) 05:40:03 437.345
JAS-2 01 Sep 05:37:47 05:43:13 23° 302° (WNW) 05:48:01 435.910
PHONESAT 2.4 01 Sep 05:38:12 05:40:39 19° 154° (SSE) 05:43:09 2401.200-2431.200
O/OREOS (USA 219) 01 Sep 05:40:45 05:45:04 40° 254° (WSW) 05:49:20 437.305
PRISM 01 Sep 05:55:37 05:56:31 11° 62° (ENE) 05:57:38 437.425
HORYU 2 01 Sep 06:03:08 06:06:41 23° 294° (WNW) 06:10:08 437.375
CUTE-I 01 Sep 06:05:23 06:08:40 17° 89° (E) 06:12:10 437.470
VERMONT LUNAR 01 Sep 06:27:21 06:30:16 53° 185° (S) 06:33:11 437.305
Cosmos 2499 01 Sep 06:45:47 06:52:14 21° 301° (WNW) 06:58:27 435.465 / 435.565
Cubesat XI-IV 01 Sep 06:59:06 07:04:18 52° 100° (E) 07:09:31 437.490
STRAND 1 01 Sep 07:04:08 07:09:13 85° 79° (ENE) 07:14:22 437.568
AO-7 01 Sep 07:05:15 07:11:38 25° 307° (NW) 07:17:47 29.400- 29.500
CUBESAT XI-V 01 Sep 07:09:40 07:13:23 23° 267° (W) 07:17:02 437.345
PHONESAT 2.4 01 Sep 07:14:50 07:18:08 49° 169° (S) 07:21:27 2401.200-2431.200
PRISM 01 Sep 07:27:21 07:31:26 73° 257° (WSW) 07:35:32 437.425
YUBILEINY 01 Sep 07:31:18 07:39:18 37° 69° (ENE) 07:47:22 435.215
CUTE-I 01 Sep 07:44:00 07:49:16 64° 288° (WNW) 07:54:32 437.470
AIST 1 01 Sep 07:44:27 07:48:07 30° 91° (E) 07:51:52
VERMONT LUNAR 01 Sep 08:03:55 08:06:25 24° 200° (SSW) 08:08:54 437.305
HO-68 01 Sep 08:04:56 08:09:12 17° 87° (E) 08:13:50 435.675
CANX-2 01 Sep 08:18:25 08:20:26 13° 89° (E) 08:22:39 2200.000
BRITE-PL 01 Sep 08:20:29 08:25:59 65° 100° (E) 08:31:38 437.365/2234.400
Cosmos 2491 01 Sep 08:20:32 08:28:02 35° 86° (E) 08:35:42 435.465 / 435.565
SEEDS 01 Sep 08:38:50 08:41:23 16° 90° (E) 08:44:05 437.485
Cubesat XI-IV 01 Sep 08:40:01 08:44:05 22° 296° (WNW) 08:48:02 437.490
STRAND 1 01 Sep 08:47:31 08:49:13 11° 274° (W) 08:50:36 437.568
GOMX 1 01 Sep 08:47:49 08:53:17 70° 100° (E) 08:58:46 467.674
PHONESAT 2.4 01 Sep 08:52:30 08:55:51 56° 187° (S) 08:59:12 2401.200-2431.200
COMPASS 1 01 Sep 08:59:40 09:02:49 21° 93° (E) 09:06:03 437.405
DOVE 4 01 Sep 08:59:49 09:05:04 56° 99° (E) 09:10:15 437.250
ISS 01 Sep 09:06:23 09:09:36 60° 143° (SE) 09:12:49 145.825
SO-50 01 Sep 09:07:27 09:11:53 32° 45° (NE) 09:16:18 436.795
AAUSAT CUBESAT 2 01 Sep 09:09:27 09:12:43 23° 93° (E) 09:16:03 437.432
ANTELSAT 01 Sep 09:10:22 09:12:29 13° 62° (ENE) 09:14:48 437.575/2403.000
AIST 1 01 Sep 09:22:25 09:25:50 22° 288° (WNW) 09:29:10
AUBIESAT-1 01 Sep 09:24:14 09:27:42 21° 61° (ENE) 09:31:14 437.475
YUBILEINY 01 Sep 09:27:59 09:36:27 51° 270° (W) 09:44:45 435.215
M-CUBED/EXP-1 PRIME 01 Sep 09:29:22 09:33:21 27° 63° (ENE) 09:37:21 437.505
ZACube-1 01 Sep 09:31:08 09:32:48 12° 87° (E) 09:34:42 437.345
CUBEBUG 2 01 Sep 09:31:19 09:34:55 22° 91° (E) 09:38:33 437.445
DELFI C3 01 Sep 09:32:43 09:33:33 11° 88° (E) 09:34:38 145.870
FUNcube-1 01 Sep 09:36:00 09:38:04 13° 88° (E) 09:40:21 145.935
UWE-3 01 Sep 09:37:39 09:40:56 20° 91° (E) 09:44:17 435.000/436.395/437.385
CUTE 1.7 + AOD 2 01 Sep 09:38:27 09:42:42 86° 283° (WNW) 09:46:54 437.475
CINEMA 3 01 Sep 09:42:43 09:47:44 65° 101° (E) 09:52:35 145.822/145.860
CUSAT 1 01 Sep 09:43:35 09:49:36 25° 64° (ENE) 09:56:13 437.405
Cosmos 2504 01 Sep 09:49:02 09:56:44 37° 69° (ENE) 10:04:10 435.465 / 435.565
QB50P2 01 Sep 09:49:56 09:51:02 11° 62° (ENE) 09:52:22 145.880/145.840
HO-68 01 Sep 09:50:42 09:57:58 87° 287° (WNW) 10:05:10 435.675
NANOSAT C BR1 01 Sep 09:50:54 09:51:43 11° 62° (ENE) 09:52:46 145.865
CANX-2 01 Sep 09:52:38 09:56:46 53° 286° (WNW) 10:00:50 2200.000
UNISAT 6 01 Sep 09:58:45 10:03:03 38° 70° (ENE) 10:07:25 437.425
BRITE-PL 01 Sep 10:00:04 10:04:03 20° 296° (WNW) 10:07:59 437.365/2234.400
QB50P1 01 Sep 10:03:07 10:05:26 15° 64° (ENE) 10:07:56 145.935-145.965
HUMSAT D 01 Sep 10:12:34 10:14:17 12° 88° (E) 10:16:12 437.325/437.525
SEEDS 01 Sep 10:13:27 10:17:26 43° 288° (WNW) 10:21:23 437.485
DANDE 01 Sep 10:14:06 10:20:22 29° 67° (ENE) 10:27:30 436.750
Cosmos 2491 01 Sep 10:16:10 10:24:38 53° 286° (WNW) 10:33:05 435.465 / 435.565
Oscar 11 01 Sep 10:21:07 10:25:26 64° 101° (E) 10:29:41 145.826/435.025
PCSat 01 Sep 10:24:38 10:29:42 39° 51° (NE) 10:34:47 145.827
TIGRISAT 01 Sep 10:26:43 10:31:22 70° 75° (ENE) 10:36:04 435.000
GOMX 1 01 Sep 10:27:10 10:30:53 18° 297° (WNW) 10:34:26 467.674
PHONESAT 2.4 01 Sep 10:30:33 10:33:25 25° 202° (SSW) 10:36:16 2401.200-2431.200
COMPASS 1 01 Sep 10:34:50 10:38:34 32° 290° (WNW) 10:42:14 437.405
DOVE 4 01 Sep 10:38:26 10:42:24 21° 295° (WNW) 10:46:13 437.250
ISS 01 Sep 10:43:23 10:46:12 26° 341° (NNW) 10:49:02 145.825
ANTELSAT 01 Sep 10:43:59 10:48:41 77° 258° (WSW) 10:53:25 437.575/2403.000
AAUSAT CUBESAT 2 01 Sep 10:44:42 10:48:21 30° 290° (WNW) 10:51:55 437.432
SO-50 01 Sep 10:47:56 10:52:31 38° 244° (WSW) 10:56:55 436.795
AUBIESAT-1 01 Sep 10:57:29 11:02:06 49° 256° (WSW) 11:06:38 437.475
POLYITAN 1 01 Sep 11:02:37 11:06:50 63° 74° (ENE) 11:11:06 437.675
M-CUBED/EXP-1 PRIME 01 Sep 11:03:28 11:07:57 38° 258° (WSW) 11:12:21 437.505
POPSAT HIP 1 01 Sep 11:05:01 11:09:14 66° 75° (ENE) 11:13:30 437.405
DUCHIFAT 1 01 Sep 11:05:04 11:09:15 63° 74° (ENE) 11:13:29 145.980
DELFI C3 01 Sep 11:05:08 11:09:05 59° 286° (WNW) 11:12:59 145.870
ZACube-1 01 Sep 11:05:14 11:09:43 66° 286° (WNW) 11:14:04 437.345
VELOX 1 01 Sep 11:06:49 11:09:49 18° 91° (E) 11:12:58 145.980
CUBEBUG 2 01 Sep 11:07:23 11:11:46 38° 290° (WNW) 11:15:59 437.445
FUNcube-1 01 Sep 11:10:26 11:14:53 59° 286° (WNW) 11:19:11 145.935
BUGSAT 1 01 Sep 11:10:52 11:14:43 44° 72° (ENE) 11:18:41 437.445
UWE-3 01 Sep 11:13:20 11:17:42 42° 289° (WNW) 11:21:54 435.000/436.395/437.385
CINEMA 3 01 Sep 11:21:11 11:24:24 17° 297° (WNW) 11:27:23 145.822/145.860
QB50P2 01 Sep 11:22:06 11:26:21 77° 258° (WSW) 11:30:40 145.880/145.840
NANOSAT C BR1 01 Sep 11:22:43 11:26:57 80° 257° (WSW) 11:31:15 145.865
CUSAT 1 01 Sep 11:25:07 11:32:56 80° 262° (W) 11:41:11 437.405
UNISAT 6 01 Sep 11:36:07 11:39:56 24° 267° (W) 11:43:41 437.425
QB50P1 01 Sep 11:36:43 11:40:53 54° 260° (W) 11:45:06 145.935-145.965
HO-68 01 Sep 11:39:59 11:44:50 19° 305° (NW) 11:49:24 435.675
50 SAT 01 Sep 11:40:27 11:44:13 49° 99° (E) 11:47:56 437.505
Cosmos 2504 01 Sep 11:41:07 11:49:13 49° 271° (W) 11:56:47 435.465 / 435.565
HUMSAT D 01 Sep 11:46:17 11:50:28 57° 286° (WNW) 11:54:34 437.325/437.525
DX 1 01 Sep 11:49:57 11:54:22 82° 103° (ESE) 11:58:45 434.975-435.025
DANDE 01 Sep 11:56:27 12:04:00 70° 263° (W) 12:12:27 436.750
Oscar 11 01 Sep 11:59:01 12:01:07 13° 297° (WNW) 12:03:03 145.826/435.025
UKube-1 01 Sep 12:01:47 12:06:09 83° 285° (WNW) 12:10:29 .
ESTCUBE 1 01 Sep 12:02:47 12:07:12 54° 100° (E) 12:11:37 437.505/2401.250
TIGRISAT 01 Sep 12:06:27 12:08:40 13° 273° (W) 12:10:38 435.000
SPROUT 01 Sep 12:07:44 12:10:18 16° 90° (E) 12:13:02 437.525
PCSat 01 Sep 12:08:14 12:13:03 33° 249° (WSW) 12:17:48 145.827
CUBEBUG 1 01 Sep 12:13:04 12:17:26 57° 100° (E) 12:21:48 437.445
AISAT 01 Sep 12:14:05 12:18:36 84° 284° (WNW) 12:23:06 437.250
GONETS M04 01 Sep 12:19:36 12:25:04 18° 58° (ENE) 12:31:00
Oscar 19 01 Sep 12:19:52 12:23:41 22° 64° (ENE) 12:27:38 437.125/150
ISS 01 Sep 12:21:11 12:23:24 17° 1° (N) 12:25:37 145.825
Cosmos 2491 01 Sep 12:23:28 12:24:16 10° 311° (NW) 12:24:23 435.465 / 435.565
POLYITAN 1 01 Sep 12:41:34 12:43:14 12° 272° (W) 12:44:40 437.675
VELOX 1 01 Sep 12:42:21 12:46:38 44° 288° (WNW) 12:50:51 145.980
DUCHIFAT 1 01 Sep 12:43:57 12:45:33 12° 272° (W) 12:46:55 145.980
POPSAT HIP 1 01 Sep 12:44:12 12:45:38 11° 273° (W) 12:46:49 437.405
BUGSAT 1 01 Sep 12:48:00 12:50:29 15° 270° (W) 12:52:52 437.445
Gurwin Techsat 1B 01 Sep 13:05:42 13:09:15 19° 63° (ENE) 13:12:59 435.225
TISAT 1 01 Sep 13:08:27 13:12:29 39° 98° (E) 13:16:31 437.305
CUSAT 1 01 Sep 13:09:43 13:14:40 17° 277° (W) 13:19:19 437.405
50 SAT 01 Sep 13:16:23 13:18:21 13° 295° (WNW) 13:20:10 437.505
ITAMSAT 1 01 Sep 13:20:08 13:23:49 21° 63° (ENE) 13:27:39 435.822/435.867
DX 1 01 Sep 13:28:41 13:30:02 11° 299° (WNW) 13:31:09 434.975-435.025
ESTCUBE 1 01 Sep 13:40:48 13:43:41 16° 296° (WNW) 13:46:24 437.505/2401.250
ITUPSAT 1 01 Sep 13:42:13 13:45:01 16° 90° (E) 13:48:01 437.325
DANDE 01 Sep 13:42:19 13:46:21 14° 277° (W) 13:50:00 436.750
SPROUT 01 Sep 13:42:30 13:46:42 48° 287° (WNW) 13:50:52 437.525
CUBEBUG 1 01 Sep 13:50:45 13:53:22 15° 296° (WNW) 13:55:50 437.445
ISS 01 Sep 13:57:39 14:00:34 29° 21° (NNE) 14:03:28 145.825
Oscar 19 01 Sep 13:57:41 14:02:42 51° 260° (W) 14:07:47 437.125/150
JAS-2 01 Sep 14:02:46 14:09:43 39° 65° (ENE) 14:16:53 435.910
BEESAT 01 Sep 14:13:57 14:18:15 33° 96° (E) 14:22:34 436.000
GONETS M04 01 Sep 14:14:44 14:23:37 83° 82° (E) 14:32:28
AO-7 01 Sep 14:20:16 14:26:59 29° 56° (NE) 14:33:52 29.400- 29.500
SWISSCUBE 01 Sep 14:39:42 14:44:27 67° 102° (ESE) 14:49:12 437.505
Cosmos 2499 01 Sep 14:40:23 14:48:10 36° 68° (ENE) 14:55:37 435.465 / 435.565
Gurwin Techsat 1B 01 Sep 14:43:33 14:48:48 62° 259° (WSW) 14:54:06 435.225
TISAT 1 01 Sep 14:44:52 14:47:59 20° 294° (WNW) 14:51:00 437.305
BEESAT 3 01 Sep 14:48:55 14:52:46 45° 118° (ESE) 14:56:42 437.485
ITAMSAT 1 01 Sep 14:57:54 15:02:59 54° 260° (W) 15:08:03 435.822/435.867
BEESAT 2 01 Sep 15:01:55 15:05:50 46° 118° (ESE) 15:09:49 435.950
KKS-1 01 Sep 15:14:50 15:18:25 24° 93° (E) 15:22:04 437.445
ITUPSAT 1 01 Sep 15:18:39 15:23:20 56° 287° (WNW) 15:27:59 437.325
HORYU 2 01 Sep 15:24:55 15:29:02 37° 70° (ENE) 15:33:12 437.375
ISS 01 Sep 15:33:56 15:37:07 49° 218° (SW) 15:40:15 145.825
RS-15 01 Sep 15:37:06 15:47:03 45° 110° (ESE) 15:57:32 29.354- 29.394
AIST 2 01 Sep 15:43:21 15:46:51 26° 114° (ESE) 15:50:27 435.215
JAS-2 01 Sep 15:47:07 15:54:34 50° 263° (W) 16:02:09 435.910
BEESAT 01 Sep 15:51:57 15:55:59 27° 293° (WNW) 15:59:55 436.000
AO-7 01 Sep 16:10:51 16:19:11 72° 255° (WSW) 16:27:32 29.400- 29.500
GONETS M04 01 Sep 16:13:16 16:19:31 21° 280° (W) 16:25:22
SWISSCUBE 01 Sep 16:19:04 16:21:49 15° 298° (WNW) 16:24:23 437.505
BEESAT 3 01 Sep 16:27:43 16:30:55 21° 317° (NW) 16:34:03 437.485
STARS 01 Sep 16:30:11 16:34:41 88° 98° (E) 16:39:07 437.465
Cosmos 2499 01 Sep 16:33:22 16:41:43 52° 270° (W) 16:49:26 435.465 / 435.565
BEESAT 2 01 Sep 16:40:55 16:44:07 21° 317° (NW) 16:47:16 435.950
Cubesat XI-IV 01 Sep 16:45:23 16:47:48 14° 59° (ENE) 16:50:28 437.490
KKS-1 01 Sep 16:51:02 16:55:08 34° 291° (WNW) 16:59:10 437.445
HORYU 2 01 Sep 17:02:15 17:05:48 22° 267° (W) 17:09:16 437.375
MOZHAYETS 4 01 Sep 17:08:19 17:12:48 56° 100° (E) 17:17:17
AIST 2 01 Sep 17:21:24 17:25:19 34° 312° (NW) 17:29:13 435.215
CUTE-I 01 Sep 17:27:36 17:32:09 31° 67° (ENE) 17:36:48 437.470
RS-15 01 Sep 17:48:27 17:59:15 58° 314° (NW) 18:10:31 29.354- 29.394
STARS 01 Sep 18:09:32 18:10:29 10° 299° (WNW) 18:11:12 437.465
AO-7 01 Sep 18:09:45 18:13:41 13° 276° (W) 18:16:57 29.400- 29.500
O/OREOS (USA 219) 01 Sep 18:15:22 18:18:42 21° 102° (ESE) 18:22:12 437.305
Cubesat XI-IV 01 Sep 18:21:55 18:27:14 89° 245° (WSW) 18:32:36 437.490
Cosmos 2491 01 Sep 18:29:55 18:35:18 18° 57° (ENE) 18:41:08 435.465 / 435.565
HO-68 01 Sep 18:35:58 18:39:53 16° 53° (NE) 18:44:08 435.675
MOZHAYETS 4 01 Sep 18:46:46 18:49:38 16° 296° (WNW) 18:52:19
CUBESAT XI-V 01 Sep 19:04:13 19:08:53 82° 104° (ESE) 19:13:33 437.345
CUTE-I 01 Sep 19:07:17 19:12:10 36° 264° (W) 19:17:02 437.470
PRISM 01 Sep 19:10:05 19:12:13 14° 90° (E) 19:14:32 437.425
CANX-2 01 Sep 19:13:00 19:14:37 12° 63° (ENE) 19:16:25 2200.000
STRAND 1 01 Sep 19:14:22 19:18:38 27° 94° (E) 19:22:59 437.568
AIST 1 01 Sep 19:27:24 19:31:45 88° 264° (W) 19:36:07
SEEDS 01 Sep 19:32:20 19:34:27 14° 64° (ENE) 19:36:44 437.485
BRITE-PL 01 Sep 19:32:34 19:36:56 72° 74° (ENE) 19:41:40 437.365/2234.400
COMPASS 1 01 Sep 19:52:04 19:54:48 18° 66° (ENE) 19:57:39 437.405
O/OREOS (USA 219) 01 Sep 19:53:37 19:57:54 40° 299° (WNW) 20:02:13 437.305
GOMX 1 01 Sep 19:56:48 20:01:19 75° 76° (ENE) 20:06:13 467.674
AAUSAT CUBESAT 2 01 Sep 20:01:20 20:04:11 18° 67° (ENE) 20:07:08 437.432
RS-15 01 Sep 20:05:49 20:14:55 26° 345° (NNW) 20:24:13 29.354- 29.394
DOVE 4 01 Sep 20:05:58 20:10:31 57° 73° (ENE) 20:15:23 437.250
Cubesat XI-IV 01 Sep 20:06:35 20:08:13 11° 274° (W) 20:09:29 437.490
HO-68 01 Sep 20:19:27 20:26:35 76° 71° (ENE) 20:33:47 435.675
Cosmos 2491 01 Sep 20:25:03 20:33:52 82° 81° (E) 20:42:40 435.465 / 435.565
ZACube-1 01 Sep 20:28:12 20:30:00 12° 62° (ENE) 20:32:02 437.345
CUBEBUG 2 01 Sep 20:30:14 20:33:44 22° 66° (ENE) 20:37:25 437.445
CUTE 1.7 + AOD 2 01 Sep 20:31:34 20:35:51 74° 76° (ENE) 20:40:08 437.475
FUNcube-1 01 Sep 20:32:49 20:34:55 14° 63° (ENE) 20:37:15 145.935
YUBILEINY 01 Sep 20:33:16 20:41:11 41° 87° (E) 20:49:18 435.215
UWE-3 01 Sep 20:35:34 20:38:47 19° 65° (ENE) 20:42:11 435.000/436.395/437.385
CUBESAT XI-V 01 Sep 20:43:53 20:45:44 12° 298° (WNW) 20:47:21 437.345
PRISM 01 Sep 20:44:00 20:47:59 48° 288° (WNW) 20:51:57 437.425
CINEMA 3 01 Sep 20:44:40 20:49:19 63° 74° (ENE) 20:54:13 145.822/145.860
CANX-2 01 Sep 20:45:45 20:50:02 69° 260° (W) 20:54:19 2200.000
STRAND 1 01 Sep 20:53:15 20:57:57 38° 291° (WNW) 21:02:37 437.568
SEEDS 01 Sep 21:05:37 21:09:49 58° 260° (W) 21:14:01 437.485
HUMSAT D 01 Sep 21:05:54 21:07:11 11° 62° (ENE) 21:08:42 437.325/437.525
BRITE-PL 01 Sep 21:14:55 21:16:16 11° 276° (W) 21:17:21 437.365/2234.400
